Regional Weather Roundup
Issued by NWS Sioux Falls, SD

Home | Current Version | Previous Version | Text Only | Print | Product List | Glossary On
Versions: 1 2 3 4 5 6 7 8 9 10 11 12 13 14 15 16 17 18 19 20 21 22 23 24 25 26 27 28 29 30 31 32 33 34 35 36 37 38 39 40 41 42 43 44 45 46 47 48 49 50
000
ASUS43 KFSD 250302
RWRFSD

WEATHER ROUNDUP FOR SE SOUTH DAKOTA/SW MINNESOTA/NW IOWA
NATIONAL WEATHER SERVICE SIOUX FALLS SD
900 PM CST WED DEC 24 2014

NOTE: "FAIR" INDICATES FEW OR NO CLOUDS BELOW 12,000 FEET WITH NO
SIGNIFICANT WEATHER AND OR OBSTRUCTIONS TO VISIBILITY.


SDZ038>040-050-052>070-250400-
SOUTHEAST SOUTH DAKOTA

CITY           SKY/WX    TMP DP  RH WIND       PRES   REMARKS
CHAMBERLAIN    NOT AVBL
HURON          PTCLDY    25  23  92 S14       29.52F WCI  13
MADISON        CLOUDY    25  25 100 S10       29.57F WCI  15
MITCHELL       PTCLDY    28  25  88 S10       29.55F WCI  19
SIOUX FALLS    CLOUDY    26  24  92 S12       29.60F WCI  16
WINNER         FAIR      36  24  62 SW13      29.48F
YANKTON        CLEAR     25  21  86 E8        29.62F WCI  16
$$

MNZ071-072-080-081-089-090-097-098-250400-
SOUTHWEST MINNESOTA

CITY           SKY/WX    TMP DP  RH WIND       PRES   REMARKS
FAIRMONT       CLOUDY    28  25  86 SW13      29.63F WCI  18
JACKSON        CLOUDY    28  27  93 SW14      29.62F WCI  17
LUVERNE        CLOUDY    28  27  93 SW13      29.63S WCI  18
MARSHALL       CLOUDY    27  23  86 SW16      29.58F WCI  14
MONTEVIDEO     CLOUDY    28  28 100 SW8       29.59S WCI  20
PIPESTONE      CLOUDY    25  25 100 SW10      29.57F FOG     WCI  15
REDWOOD FALLS  CLOUDY    30  26  85 S13       29.61F WCI  20
TRACY          CLOUDY    28  27  95 SW15      29.59F WCI  16
WINDOM         CLOUDY    27  27 100 SW13G18   29.62F WCI  16
WORTHINGTON    CLOUDY    25 -20  13 SW16      29.62F WCI  12
$$

IAZ001>003-012>014-020>022-031-032-NEZ013-014-SDZ071-250400-
NORTHWEST IOWA

CITY           SKY/WX    TMP DP  RH WIND       PRES   REMARKS
DENISON        CLOUDY    28  28 100 SW10      29.69F WCI  19
ESTHERVILLE    CLOUDY    26  25  96 SW14      29.65S WCI  14
SIOUX CITY     PTCLDY    28  25  88 SE8       29.67F WCI  20
SPENCER        CLOUDY    27  24  89 SW13      29.66S WCI  16
$$

ABBREVIATIONS USED IN REMARKS
   TC - TEMPERATURE IN CELSIUS
  WCI - WIND CHILL INDEX
   HX - HEAT INDEX
  VSB - VISIBILITY



USA.gov is the U.S. government's official web portal to all federal, state and local government web resources and services.